Weather in Silves

Portugal     37°11′14″N   8°26′15″W
temp.,
°C
wind,
m/s
gust,
m/s
humid.,
%
clouds,
%
prec.,
mm/h
press.,
hPa
HPBL,
m
27 january, thu
thu2700:00+12ne386587 0.0 1023425
03:00+9ne357925 0.0 1022103
06:00+9ne497653 0.0 1023235
09:00+11e4117325 0.0 1024570
12:00+16ese695318 0.0 10241406
15:00+16ese675357 0.0 10231449
18:00+12ese227234 0.0 102343
21:00+10ne227517 0.0 102529
28 january, fri
fri2800:00+9ne337897 0.0 102654
03:00+8nne33825 0.0 102535
06:00+8nne33762 0.0 102550
09:00+10nne357135 0.0 1026141
12:00+17e57415 0.0 10261304
15:00+18e56392 0.0 10241678
18:00+12ese23592 0.0 102544
21:00+10ne33620 0.0 102651
29 january, sat
sat2900:00+9ne22665 0.0 102628
03:00+8nne33670 0.0 102646
06:00+8ne35644 0.0 102686
09:00+10ene31160100 0.0 1027433
12:00+16ese5947100 0.0 1027813
15:00+17ese574398 0.0 10261082
18:00+12ene116056 0.1 102615
21:00+10ene226946 0.0 102717
30 january, sun
sun3000:00+9ne2272100 0.1 102728
03:00+10ne117111 0.0 102625
06:00+9nne23705 0.0 102529
09:00+11nne23605 0.0 102698
12:00+18se34370 0.0 1026635
15:00+19sse223710 0.0 1024795
18:00+12wnw11645 0.0 102411
21:00+11nne116797 0.0 102611
31 january, mon
mon3100:00+11n325991 0.0 102629
03:00+10n3359100 0.0 102634
06:00+10n3458100 0.0 102555
09:00+11nne365599 0.0 1027130
12:00+19nne35345 0.0 1027567
15:00+21nw13304 0.0 10251370
18:00+14n22513 0.0 102619
21:00+11n33580 0.0 102832